Temp
77 80 83 85 74 71 67 71 75 75 78 84 84 84 84 85 83 80 85 88 88 87 85 84 79 80 80 80 79 79 79 79 79 79 79 79 79 79 79 79 79 80 80 81 81 80 80 80 80
79 80 83 78 69 63 68 73 72 80 81 85 88 86 84 83 87 82 84 85 88 86 85 85 79 80 80 79 79 79 79 79 79 79 79 79 79 79 79 79 79 80 80 81 81 81 80 80 80
78 78 79 73 68 64 68 73 76 81 83 84 84 88 86 84 87 86 87 86 86 85 85 84 79 79 79 79 78 78 78 78 78 79 79 79 78 78 78 79 79 80 80 81 81 80 80 80 80
79 80 75 66 65 71 75 76 78 78 82 84 85 82 91 86 85 88 88 87 86 85 87 81 79 79 79 79 78 78 78 78 78 79 78 78 78 78 78 78 79 80 80 81 80 79 79 79 79
76 73 65 61 64 70 74 80 78 79 79 82 84 82 85 83 85 87 86 87 86 87 87 85 79 79 79 79 79 78 78 78 78 78 78 78 78 78 78 78 79 79 80 80 79 79 78 78 79
70 70 60 60 64 70 75 78 78 79 80 80 82 83 87 85 84 85 88 88 89 87 87 85 80 78 78 79 78 78 78 78 78 78 78 78 77 78 78 78 78 79 79 79 79 78 78 78 78
68 64 62 62 62 67 71 80 78 80 81 81 87 81 89 83 85 87 87 88 89 89 87 86 86 82 78 78 78 78 77 77 77 77 77 77 77 77 77 77 78 78 78 78 78 78 77 77 77
69 67 59 62 63 64 72 77 81 80 80 88 88 81 83 82 84 85 85 85 88 88 89 88 87 87 86 84 78 77 77 77 77 77 77 77 77 77 77 76 77 77 77 77 77 77 77 77 77
68 61 59 62 62 66 72 72 80 83 82 83 86 86 83 83 82 80 77 79 83 86 87 87 87 85 87 88 84 78 78 77 77 78 77 77 85 84 82 80 77 77 77 77 77 77 77 76 76
66 60 62 66 70 68 72 75 77 77 77 79 83 87 83 82 82 80 77 76 79 81 82 84 83 84 86 87 85 85 85 85 84 84 82 85 84 84 85 81 77 77 77 77 77 77 76 78 84
65 59 66 66 71 72 72 73 77 74 73 79 80 85 81 80 80 81 82 82 81 82 81 80 80 82 84 86 84 85 85 85 84 83 83 83 83 83 84 85 84 84 79 85 82 81 84 84 85
58 64 67 69 70 71 70 75 73 75 77 82 83 84 82 80 79 78 80 80 81 80 82 80 80 80 82 85 84 85 85 84 84 84 82 82 82 82 83 85 85 82 85 83 83 85 83 83 84
58 64 65 69 71 71 73 70 71 71 78 82 81 82 83 81 79 80 82 82 81 79 80 79 79 78 79 81 82 83 84 83 85 85 83 84 83 81 83 82 83 83 83 83 82 83 83 83 83
64 64 66 67 68 70 67 69 70 74 78 78 78 80 83 82 80 80 79 80 79 80 79 80 79 76 78 79 77 81 81 84 84 84 84 82 83 81 82 81 82 82 82 83 83 82 82 83 83
64 58 61 64 67 66 68 62 64 73 76 76 79 81 83 82 82 80 81 80 80 80 80 78 76 76 76 78 77 80 83 84 83 83 82 82 81 80 78 81 81 81 80 79 79 79 79 79 79
58 59 54 64 63 66 66 58 69 74 73 73 76 80 80 82 81 82 82 81 81 82 77 76 76 75 75 77 78 77 80 82 82 83 83 81 80 80 79 80 80 79 75 78 78 78 78 78 78
55 52 52 57 65 66 63 60 70 75 72 72 75 78 80 82 81 80 81 82 81 81 79 77 77 76 75 75 76 76 77 80 81 81 82 80 80 80 80 80 78 75 76 74 75 76 75 76 77
49 49 52 53 61 64 63 60 69 71 72 73 77 78 77 80 82 82 81 81 80 80 80 79 78 77 75 76 75 76 77 78 79 80 81 80 80 79 78 79 77 76 74 73 74 73 71 71 75
57 53 53 58 64 61 60 62 64 71 70 71 73 75 75 76 83 82 80 80 79 78 77 77 75 74 74 74 72 74 76 75 74 76 78 78 78 78 76 76 74 71 70 70 71 70 67 73 73
54 51 52 58 63 60 62 60 66 69 70 73 73 75 76 77 78 79 78 78 76 76 76 76 76 73 74 76 74 75 75 75 76 73 73 74 75 74 72 72 72 69 68 68 69 71 71 73 76
50 50 50 54 60 63 60 58 62 68 70 73 75 77 78 78 78 76 77 77 78 76 75 75 75 73 73 74 72 71 71 72 72 69 69 70 71 72 72 72 69 69 70 73 72 73 72 74 76
45 55 55 56 55 50 62 50 58 66 67 69 73 73 76 78 77 79 77 77 77 78 79 78 75 72 71 73 71 71 72 73 72 71 71 71 74 75 74 72 70 70 72 73 74 75 74 72 74
50 56 54 56 54 53 55 51 60 62 63 68 72 75 76 78 78 77 77 78 79 80 78 77 73 70 70 72 72 71 70 73 74 73 72 71 71 74 75 74 73 73 75 74 73 73 72 75 75
59 54 54 55 54 44 53 52 55 60 65 70 74 75 76 77 77 78 79 79 78 74 72 70 67 68 71 73 72 72 72 73 74 73 72 71 72 73 74 75 75 73 74 74 74 73 72 73 73
54 50 40 38 40 42 55 50 57 64 63 65 67 68 69 74 73 73 73 74 72 67 67 68 68 66 70 71 72 73 74 73 73 73 74 72 69 70 71 72 71 73 71 71 71 70 71 71 71
50 51 44 33 37 44 51 46 56 63 59 62 63 64 68 69 71 72 72 71 69 66 66 67 65 63 67 68 68 68 69 72 71 71 73 70 70 70 69 70 70 70 71 71 70 73 73 69 70
51 47 60 49 51 46 50 53 55 57 58 60 61 64 64 61 61 63 64 62 60 61 64 65 64 63 65 65 64 64 65 65 65 66 68 69 69 69 69 69 68 68 69 69 68 71 68 67 67
56 60 47 52 38 38 47 50 54 53 54 55 56 57 57 57 57 57 56 57 58 61 64 65 65 63 63 63 62 62 62 62 61 62 62 64 64 66 67 67 67 67 67 67 66 67 67 65 67
52 50 54 53 50 44 40 48 55 56 57 55 55 54 53 53 53 53 55 57 59 64 65 64 64 63 62 62 59 58 57 59 60 60 61 62 63 64 65 65 65 65 65 64 64 64 65 64 64
59 52 55 47 43 49 52 45 53 58 56 55 51 51 52 53 53 54 56 58 62 63 63 61 61 62 61 58 54 54 53 57 57 59 59 60 60 61 62 62 63 63 63 62 62 62 64 63 62
MSLP
1011.19 1011.07 1010.64 1009.93 1009.79 1008.75 1006.89 1006.20 1006.07 1005.39 1005.09 1004.90 1004.81 1004.35 1003.92 1003.75 1003.57 1004.54 1005.32 1005.86 1006.32 1007.00 1007.73 1008.53 1009.19 1009.54 1009.79 1010.17 1010.42 1010.60 1010.92 1011.22 1011.56 1012.01 1012.33 1012.64 1012.87 1013.24 1013.57 1013.82 1014.16 1014.38 1014.59 1014.78 1014.99 1015.14 1015.21 1015.32 1015.43
1011.00 1010.78 1010.33 1009.79 1008.85 1007.46 1006.02 1005.94 1005.53 1004.99 1005.15 1004.77 1004.16 1003.95 1003.66 1003.45 1003.98 1004.87 1005.47 1006.30 1006.58 1007.12 1007.74 1008.54 1009.18 1009.53 1009.98 1010.21 1010.33 1010.62 1011.05 1011.45 1011.87 1012.26 1012.59 1012.92 1013.14 1013.45 1013.77 1014.02 1014.31 1014.54 1014.73 1014.87 1014.99 1015.02 1015.15 1015.32 1015.56
1010.91 1010.72 1009.83 1009.11 1007.98 1006.10 1005.24 1005.61 1005.54 1005.17 1005.19 1004.78 1004.14 1003.92 1003.74 1003.75 1004.20 1004.71 1005.33 1006.10 1006.70 1007.23 1007.61 1008.27 1009.02 1009.54 1010.05 1010.27 1010.52 1010.73 1011.04 1011.48 1011.83 1012.31 1012.71 1013.09 1013.43 1013.75 1014.08 1014.37 1014.54 1014.78 1014.92 1014.95 1015.11 1015.23 1015.32 1015.47 1015.61
1010.74 1010.54 1010.51 1008.87 1006.83 1005.69 1005.32 1005.43 1005.69 1005.40 1005.21 1005.01 1004.73 1004.02 1003.86 1004.28 1004.46 1004.76 1005.58 1006.10 1006.65 1007.37 1007.66 1008.36 1008.69 1009.07 1009.52 1009.99 1010.46 1010.86 1011.20 1011.63 1011.96 1012.38 1012.78 1013.15 1013.43 1013.72 1014.01 1014.28 1014.52 1014.79 1014.94 1015.14 1015.38 1015.54 1015.57 1015.54 1015.70
1010.97 1010.56 1009.34 1008.32 1006.97 1006.11 1005.84 1005.52 1005.60 1005.26 1005.30 1004.90 1004.89 1004.18 1004.10 1004.49 1004.99 1005.15 1005.72 1006.13 1006.31 1007.06 1007.57 1008.33 1009.02 1009.42 1009.73 1009.84 1010.27 1010.73 1011.12 1011.54 1012.01 1012.35 1012.79 1013.17 1013.53 1013.75 1013.95 1014.25 1014.47 1014.72 1014.91 1015.06 1015.23 1015.51 1015.71 1015.72 1015.70
1010.62 1010.62 1009.05 1007.43 1006.42 1006.18 1005.89 1005.91 1005.71 1005.13 1005.11 1005.17 1004.89 1004.42 1003.97 1004.66 1004.91 1005.43 1005.86 1006.18 1006.54 1006.82 1007.34 1008.13 1008.95 1009.35 1009.85 1010.35 1010.51 1010.69 1011.10 1011.53 1012.03 1012.44 1012.80 1013.11 1013.48 1013.88 1014.13 1014.31 1014.53 1014.70 1014.78 1014.96 1015.16 1015.37 1015.49 1015.75 1015.80
1009.90 1009.81 1008.29 1007.54 1006.40 1005.76 1005.95 1005.78 1005.24 1004.84 1004.64 1004.54 1004.62 1004.31 1003.77 1004.64 1005.17 1005.57 1006.14 1006.56 1006.82 1007.09 1007.47 1007.91 1008.51 1009.18 1009.63 1010.13 1010.74 1010.90 1011.17 1011.48 1011.69 1012.23 1012.73 1013.14 1013.51 1013.82 1014.02 1014.23 1014.49 1014.73 1014.82 1014.94 1015.06 1015.22 1015.45 1015.56 1015.77
1010.06 1009.64 1008.36 1007.49 1006.22 1005.50 1005.97 1005.72 1005.10 1004.72 1004.20 1004.41 1004.44 1003.81 1003.91 1004.94 1005.69 1005.98 1006.45 1006.94 1007.09 1007.41 1007.63 1008.07 1008.40 1008.99 1009.51 1009.94 1010.36 1010.84 1011.24 1011.52 1011.90 1012.22 1012.40 1012.78 1013.23 1013.76 1014.10 1014.28 1014.41 1014.50 1014.69 1014.77 1014.89 1015.02 1015.25 1015.39 1015.51
1010.34 1009.16 1007.29 1006.73 1006.31 1005.66 1005.88 1005.52 1005.16 1004.82 1004.52 1004.42 1004.08 1004.02 1004.78 1005.26 1005.96 1006.42 1006.79 1007.14 1007.37 1007.54 1007.89 1008.28 1008.65 1009.05 1009.41 1009.94 1010.60 1010.97 1011.28 1011.51 1011.90 1012.33 1012.63 1012.96 1012.88 1013.23 1013.60 1013.71 1014.07 1014.22 1014.35 1014.53 1014.86 1015.03 1015.21 1015.41 1015.38
1009.29 1007.84 1006.70 1006.63 1006.08 1005.65 1005.47 1005.32 1005.12 1004.85 1004.54 1004.31 1004.09 1004.13 1004.84 1005.31 1005.60 1005.89 1006.31 1006.78 1007.16 1007.55 1008.07 1008.59 1009.02 1009.33 1009.45 1009.71 1010.21 1010.71 1011.10 1011.40 1011.69 1012.03 1012.47 1012.55 1012.86 1013.09 1013.04 1013.44 1013.82 1013.87 1014.13 1014.49 1014.71 1014.93 1014.94 1014.95 1014.83
1008.39 1006.53 1006.74 1006.32 1006.00 1005.77 1005.36 1005.15 1005.29 1004.88 1004.32 1004.25 1004.03 1003.90 1004.65 1005.09 1005.46 1005.62 1005.98 1006.07 1006.64 1007.43 1008.10 1008.72 1009.14 1009.34 1009.48 1009.61 1010.04 1010.46 1010.74 1011.15 1011.53 1012.03 1012.33 1012.55 1012.89 1013.24 1013.41 1013.38 1013.67 1013.71 1014.07 1013.89 1014.26 1014.43 1014.45 1014.43 1014.27
1007.53 1006.86 1006.67 1006.10 1005.94 1005.50 1004.91 1005.09 1004.83 1004.89 1004.27 1004.42 1004.33 1004.36 1004.55 1004.85 1004.99 1005.45 1005.87 1006.30 1006.48 1007.13 1007.61 1008.33 1008.74 1009.17 1009.25 1009.27 1009.91 1010.03 1010.55 1010.96 1011.29 1011.68 1012.17 1012.40 1012.67 1012.94 1013.03 1013.12 1013.35 1013.49 1013.48 1013.64 1013.81 1013.86 1013.94 1014.12 1014.03
1006.93 1006.67 1006.48 1006.12 1005.72 1005.32 1005.06 1004.84 1004.98 1004.77 1004.58 1004.53 1004.51 1004.31 1004.27 1004.43 1004.75 1005.23 1005.53 1006.06 1006.46 1006.78 1007.23 1008.00 1008.58 1008.90 1009.14 1009.30 1009.74 1009.89 1010.34 1010.85 1010.97 1011.36 1011.83 1012.13 1012.35 1012.77 1012.84 1013.05 1013.31 1013.43 1013.51 1013.34 1013.49 1013.47 1013.67 1013.74 1013.75
1006.27 1006.41 1006.04 1005.86 1005.52 1005.34 1004.91 1004.73 1005.13 1004.39 1004.40 1004.30 1004.27 1003.83 1003.90 1003.97 1004.37 1004.96 1005.29 1005.55 1006.05 1006.48 1006.88 1007.49 1008.07 1008.68 1009.04 1009.33 1009.72 1009.93 1010.17 1010.36 1010.86 1011.08 1011.44 1011.98 1012.22 1012.51 1012.75 1013.03 1013.20 1013.39 1013.55 1013.48 1013.35 1013.46 1013.56 1013.72 1013.63
1006.41 1006.37 1006.03 1005.40 1005.23 1004.98 1005.11 1003.78 1003.26 1004.14 1004.42 1004.03 1003.66 1003.37 1003.30 1003.58 1003.98 1004.08 1004.39 1005.01 1005.51 1006.03 1006.59 1007.08 1007.81 1008.47 1008.85 1009.17 1009.67 1009.95 1010.03 1010.21 1010.59 1010.88 1011.29 1011.53 1011.85 1012.21 1012.48 1012.72 1012.97 1013.20 1013.59 1013.58 1013.83 1013.82 1013.53 1013.85 1013.91
1006.19 1006.08 1004.95 1004.28 1004.77 1004.84 1005.10 1001.55 1002.62 1002.80 1003.23 1003.17 1003.11 1002.94 1002.76 1003.04 1003.11 1003.64 1004.15 1004.51 1004.95 1005.45 1006.14 1007.03 1007.63 1008.11 1008.60 1008.89 1009.30 1009.75 1009.92 1010.10 1010.35 1010.85 1011.08 1011.45 1011.90 1012.04 1012.23 1012.37 1012.77 1013.19 1013.65 1013.38 1013.79 1014.02 1013.86 1013.70 1013.59
1005.07 1003.43 1003.87 1003.98 1003.93 1003.87 1003.84 1002.34 1002.44 1002.57 1002.87 1002.56 1002.49 1002.41 1002.27 1002.36 1002.79 1003.18 1003.62 1004.02 1004.53 1005.07 1005.65 1006.39 1007.13 1007.74 1008.32 1008.77 1009.22 1009.63 1009.98 1010.28 1010.39 1010.72 1010.97 1011.24 1011.57 1011.78 1012.00 1012.13 1012.70 1013.40 1013.40 1013.55 1013.94 1014.05 1013.89 1013.76 1013.44
1003.01 1003.78 1003.63 1003.31 1003.22 1003.08 1002.42 1002.12 1001.99 1001.73 1001.83 1001.75 1001.59 1001.71 1002.01 1002.00 1002.14 1002.48 1003.02 1003.63 1004.30 1004.88 1005.35 1005.90 1006.68 1007.38 1008.13 1008.69 1009.17 1009.61 1009.98 1010.30 1010.49 1010.65 1010.86 1010.95 1011.08 1011.36 1011.85 1012.25 1012.70 1013.04 1013.39 1013.64 1013.79 1013.72 1013.78 1013.79 1013.61
1003.09 1003.30 1003.06 1002.84 1002.49 1002.46 1001.80 1001.71 1002.06 1001.63 1001.85 1001.77 1001.47 1001.42 1001.58 1001.78 1001.71 1002.37 1002.93 1003.54 1004.16 1004.75 1005.23 1005.62 1006.45 1007.10 1007.73 1008.31 1008.91 1009.51 1009.89 1010.43 1010.78 1010.91 1010.92 1011.12 1011.23 1011.44 1011.76 1012.24 1012.53 1013.03 1013.23 1013.45 1013.74 1013.83 1013.69 1013.27 1013.36
1003.58 1003.30 1003.06 1002.62 1002.31 1002.16 1001.32 1000.96 1001.24 1000.73 1000.96 1001.00 1000.86 1000.61 1000.82 1001.21 1001.65 1002.01 1002.52 1003.19 1003.78 1004.18 1004.90 1005.66 1006.18 1006.95 1007.51 1008.06 1008.95 1009.48 1010.01 1010.42 1010.46 1010.89 1011.14 1011.28 1011.51 1011.76 1012.01 1012.03 1012.27 1012.82 1013.27 1013.44 1013.54 1013.56 1013.30 1012.78 1012.84
1003.37 1002.94 1003.08 1002.28 1001.91 1001.74 1001.21 1000.41 1000.13 999.82 1000.28 1000.29 1000.28 1000.13 1000.19 1000.57 1000.81 1001.54 1002.09 1002.52 1003.03 1003.74 1004.39 1004.98 1005.94 1006.88 1007.55 1008.29 1009.08 1009.61 1010.12 1010.40 1010.56 1010.93 1011.18 1011.38 1011.57 1011.83 1011.90 1011.86 1012.03 1012.28 1012.97 1013.02 1012.84 1013.06 1012.75 1012.23 1012.33
1002.38 1003.01 1003.15 1002.38 1001.70 1000.88 1000.95 999.26 999.15 999.08 999.19 999.45 999.36 999.51 999.59 999.88 1000.38 1000.89 1001.54 1002.12 1002.56 1002.82 1003.92 1005.01 1005.91 1006.77 1007.58 1008.29 1008.87 1009.35 1009.54 1009.87 1010.33 1010.65 1011.08 1011.28 1011.41 1011.51 1011.60 1011.82 1011.91 1012.16 1012.59 1012.46 1012.64 1012.44 1012.33 1012.57 1012.09
1001.29 1002.46 1002.85 1002.48 1001.93 1001.28 1000.53 1000.11 998.30 998.93 998.26 998.45 998.60 998.62 998.81 999.00 999.59 1000.26 1000.97 1001.55 1001.89 1003.01 1004.00 1005.00 1006.16 1007.06 1007.67 1008.13 1008.75 1009.27 1009.81 1009.99 1009.92 1010.15 1010.61 1011.11 1011.32 1011.22 1011.25 1011.31 1011.57 1011.95 1012.30 1012.03 1012.31 1012.47 1012.59 1012.35 1012.13
1001.88 1002.23 1002.65 1002.60 1002.09 1001.15 999.81 999.80 998.28 998.16 997.90 997.94 997.99 998.18 998.34 998.74 999.52 1000.22 1000.97 1001.95 1002.76 1003.84 1004.74 1005.56 1006.39 1007.35 1007.71 1007.99 1008.54 1009.33 1009.54 1009.74 1009.83 1010.02 1010.18 1010.68 1011.11 1011.37 1011.37 1011.22 1011.44 1011.78 1012.04 1012.07 1012.19 1012.59 1012.65 1012.50 1012.42
1001.24 1001.12 1001.26 1001.73 1001.26 999.22 999.20 999.87 997.94 998.45 998.89 998.80 998.54 998.64 998.96 998.97 999.81 1000.54 1001.52 1002.42 1003.57 1004.70 1005.52 1006.17 1006.97 1007.81 1008.22 1008.65 1008.93 1009.22 1009.47 1009.81 1010.00 1010.21 1010.24 1010.55 1010.90 1011.38 1011.59 1011.62 1011.73 1011.91 1012.24 1012.44 1012.50 1012.52 1012.66 1012.74 1012.73
999.59 999.17 998.13 998.07 998.29 998.33 999.61 998.66 998.25 999.24 1000.01 999.80 999.70 999.79 999.84 1000.12 1000.60 1001.28 1002.12 1003.01 1004.24 1005.16 1005.87 1006.60 1007.53 1008.32 1008.87 1009.24 1009.73 1010.16 1010.46 1010.27 1010.58 1010.71 1010.71 1010.80 1010.99 1011.50 1012.03 1012.20 1012.29 1012.49 1012.56 1012.60 1012.50 1012.39 1012.59 1012.87 1012.85
998.45 998.36 997.48 997.57 998.06 998.41 998.49 999.04 999.76 1000.16 1000.46 1000.53 1000.72 1000.87 1001.19 1001.66 1002.26 1002.84 1003.52 1004.52 1005.27 1005.85 1006.45 1007.12 1008.00 1008.93 1009.61 1010.05 1010.40 1010.83 1011.40 1011.75 1011.86 1012.00 1011.87 1011.69 1012.05 1012.32 1012.63 1012.70 1012.68 1012.80 1012.73 1012.74 1012.69 1012.52 1012.69 1012.81 1012.75
996.78 996.92 997.28 996.59 997.00 997.17 997.80 998.45 998.65 1000.12 1000.93 1001.51 1002.04 1002.42 1002.89 1003.24 1003.72 1004.25 1005.00 1005.79 1006.24 1006.76 1007.36 1007.81 1008.37 1009.13 1010.00 1010.43 1010.81 1011.80 1011.90 1012.61 1013.21 1013.31 1013.17 1013.09 1013.05 1013.10 1013.19 1012.93 1012.87 1012.84 1012.94 1012.98 1012.98 1012.82 1012.72 1012.79 1012.64
996.41 996.90 996.78 996.69 996.59 996.24 997.32 998.54 999.89 1000.43 1001.40 1002.17 1003.01 1003.64 1004.13 1004.88 1005.39 1005.75 1006.31 1006.80 1007.09 1007.66 1008.13 1008.70 1009.34 1009.85 1010.30 1010.41 1011.23 1012.45 1013.42 1013.20 1013.81 1014.34 1014.38 1014.15 1013.86 1013.60 1013.45 1013.22 1013.25 1013.24 1013.24 1013.22 1013.12 1012.84 1012.70 1012.66 1012.48
996.12 996.37 995.92 995.70 996.54 996.82 996.87 999.78 1001.02 1001.28 1002.36 1003.11 1004.18 1004.97 1005.72 1006.34 1006.85 1007.09 1007.34 1007.64 1007.86 1008.50 1009.02 1009.86 1010.63 1010.82 1010.99 1011.10 1011.74 1013.21 1013.57 1014.77 1015.18 1014.80 1014.99 1014.85 1014.38 1014.14 1014.06 1013.80 1013.60 1013.43 1013.26 1013.21 1013.01 1012.82 1012.75 1012.46 1012.16
Wind_Speed
7 4 2 1 5 3 7 6 2 3 4 1 6 5 7 3 4 4 3 10 16 21 19 20 19 18 17 17 18 19 18 18 18 17 17 17 16 16 14 13 11 11 11 11 11 11 11 11 11
3 1 1 2 6 10 11 6 8 9 1 10 7 4 3 1 1 6 10 9 18 19 18 19 19 19 18 16 17 19 19 18 17 17 17 16 15 15 14 12 11 11 11 11 12 12 12 11 11
1 2 3 4 6 17 14 7 8 6 3 4 4 2 4 3 2 3 5 16 19 19 19 19 19 19 18 18 16 17 18 18 18 17 17 16 15 13 12 11 10 10 11 11 11 11 11 11 10
2 3 3 7 17 18 20 4 3 3 2 1 5 7 5 1 0 1 15 19 20 18 19 20 20 21 20 19 18 17 18 18 18 18 17 16 15 14 13 12 10 10 11 10 9 9 8 9 8
3 0 5 7 17 10 6 11 6 7 2 2 7 8 6 3 5 11 16 18 21 20 18 19 17 18 18 20 20 19 19 19 18 18 17 16 15 14 13 12 11 10 10 10 10 9 7 6 7
3 1 5 15 19 15 13 9 8 11 6 2 4 6 4 7 8 11 14 17 18 20 19 18 18 18 18 17 18 19 19 19 18 18 17 17 15 14 13 12 11 10 10 10 10 9 8 6 5
5 4 9 9 11 14 10 8 13 14 15 12 4 5 3 4 7 11 12 13 17 19 18 17 18 18 19 18 16 17 18 18 19 18 17 16 15 14 13 12 11 10 9 9 8 8 7 6 3
4 4 7 9 14 14 3 8 6 11 12 5 4 6 2 3 9 12 13 12 15 16 16 16 16 16 16 16 18 17 17 17 17 17 18 17 16 13 11 10 10 10 9 8 9 8 7 5 2
4 8 14 16 15 9 1 4 6 2 7 3 3 3 5 8 13 13 12 13 12 13 14 14 14 14 14 14 14 15 17 17 16 15 15 14 11 14 15 11 12 11 10 9 6 4 3 1 3
11 11 15 7 15 8 8 13 6 5 6 5 5 4 5 11 14 16 16 15 16 16 14 12 12 13 13 11 14 13 13 12 12 12 14 10 11 11 12 12 13 13 10 7 6 4 4 5 3
11 18 13 11 15 12 14 16 9 8 14 12 9 7 2 8 12 13 14 16 17 15 13 13 13 12 13 11 10 7 8 8 9 12 12 10 9 8 7 6 7 7 9 7 8 7 5 6 4
13 16 15 12 10 11 15 12 13 13 17 6 6 6 5 6 12 15 14 16 18 17 17 16 16 14 14 10 9 10 8 8 8 10 12 9 7 8 8 6 7 6 5 6 6 5 6 7 8
21 12 16 21 13 18 16 16 12 7 9 10 9 15 13 10 12 14 15 14 16 18 17 17 16 13 13 13 9 9 9 8 10 10 12 9 8 8 7 6 6 6 6 7 7 6 6 7 7
5 20 17 12 20 20 22 21 16 8 12 12 10 13 10 13 14 13 15 16 17 16 17 17 17 13 13 11 10 9 9 10 9 9 10 11 8 7 7 6 6 6 6 5 6 6 5 5 4
13 8 11 20 20 15 7 22 22 19 17 18 15 15 13 11 15 17 18 18 18 16 16 16 15 12 12 14 10 8 8 9 9 9 11 12 10 9 7 6 6 5 5 6 4 4 4 4 4
15 15 18 14 11 12 11 20 6 17 18 20 18 16 13 10 18 17 15 16 18 16 18 15 12 12 12 13 10 7 7 8 8 8 8 11 10 10 9 7 6 6 6 5 5 5 5 5 4
14 14 20 12 14 10 20 12 16 19 13 14 13 14 13 13 12 13 15 15 16 17 17 18 17 16 15 12 8 8 8 7 7 7 7 10 11 11 9 7 7 8 7 6 6 6 4 5 6
14 17 9 16 14 23 23 18 9 2 17 19 16 14 12 13 15 14 15 15 14 15 14 14 13 15 13 9 7 5 5 5 5 6 7 10 9 11 9 7 8 8 7 7 7 6 4 5 7
15 16 19 12 8 16 22 21 19 16 10 11 13 13 12 13 14 9 10 11 12 12 13 14 15 13 11 9 8 6 6 5 3 4 6 7 7 10 9 7 8 7 6 7 8 6 5 5 4
18 9 11 12 18 13 14 22 20 21 17 16 16 15 14 12 12 10 11 13 14 15 14 14 14 13 11 9 7 4 5 3 4 4 4 5 7 8 9 9 9 7 5 7 8 8 3 4 3
23 22 9 5 12 13 6 15 12 15 16 14 14 13 15 15 15 12 13 16 16 15 16 15 13 11 11 10 8 6 4 3 3 2 3 4 6 8 9 10 6 7 8 8 7 9 7 5 3
27 23 16 9 9 10 10 5 11 17 14 15 16 14 15 15 15 14 15 15 16 18 14 12 11 11 10 12 8 9 6 5 4 5 5 6 8 9 8 8 5 5 5 6 6 5 5 5 6
22 19 21 14 9 5 10 7 7 5 14 17 15 16 17 17 17 16 17 18 17 11 11 10 9 8 10 11 10 7 5 3 3 4 7 7 6 7 7 6 4 4 6 4 5 5 7 6 5
10 20 20 16 11 13 19 12 6 10 14 12 10 8 13 14 14 12 12 11 11 8 9 9 10 7 10 10 10 8 8 5 4 4 3 5 5 4 4 5 5 4 3 4 4 5 4 2 1
20 22 11 12 11 9 13 13 9 7 2 5 5 3 2 9 11 11 12 12 12 11 11 10 10 8 7 6 7 7 5 4 3 3 3 4 4 3 3 3 4 4 4 4 4 3 2 1 3
28 23 12 19 17 15 6 12 4 4 3 2 4 5 9 13 13 14 14 13 13 13 14 15 14 12 11 10 10 8 8 4 2 3 2 3 3 5 5 5 5 5 4 3 3 2 2 3 4
28 24 12 10 10 10 9 4 5 5 5 6 8 10 13 15 15 16 16 15 15 14 17 18 19 16 15 15 14 15 13 12 10 9 7 7 6 6 6 5 5 4 4 4 3 3 3 4 5
28 25 13 7 12 12 12 8 6 9 8 8 10 12 13 15 16 16 15 15 14 17 18 20 20 20 17 17 15 12 14 13 11 9 10 8 7 6 4 5 4 4 4 4 4 3 3 6 7
19 22 18 4 3 7 9 8 2 8 9 11 12 12 13 14 14 15 15 15 17 20 19 18 18 18 16 17 15 13 9 11 10 8 7 7 7 7 6 6 5 5 4 5 5 6 7 9 10
16 23 20 12 8 2 2 6 3 9 10 12 14 14 15 16 16 16 15 15 19 18 17 16 13 13 14 15 16 13 12 10 7 8 7 6 6 6 6 6 6 6 6 6 7 8 9 11 12
Wind_Direction
312 303 285 247 227 253 242 221 291 193 196 33 287 261 283 298 270 2 354 157 142 146 149 147 144 143 143 142 136 130 130 133 133 135 136 136 136 135 136 134 135 139 138 131 126 123 121 120 124
320 227 149 117 229 225 234 220 210 232 105 312 307 298 232 29 36 103 123 145 150 145 147 148 147 146 146 144 137 134 134 133 132 133 134 135 134 135 134 133 136 141 142 135 133 133 131 129 130
145 350 202 197 219 230 242 214 239 271 277 293 324 310 325 324 37 141 127 146 147 148 150 148 147 144 146 143 139 136 134 134 133 134 135 134 134 131 127 127 134 144 143 141 137 134 134 134 135
128 153 119 227 221 241 237 191 215 165 109 154 357 302 305 50 4 93 147 147 148 152 154 146 148 150 149 146 144 142 138 137 137 138 137 137 135 132 131 134 136 142 142 137 130 131 133 135 134
56 156 207 226 234 250 228 231 204 257 233 245 337 309 282 100 96 135 150 157 154 154 155 151 149 149 149 147 146 146 145 143 143 142 140 137 136 136 135 135 138 141 141 140 137 140 135 134 139
136 263 212 229 237 225 246 238 244 247 262 247 273 278 279 134 135 146 157 162 159 155 155 154 152 151 149 149 149 147 146 146 145 144 143 142 143 141 141 139 140 143 144 144 146 147 147 144 150
199 194 230 248 253 253 227 213 226 243 255 258 231 241 265 169 142 150 154 161 163 158 157 160 162 156 152 151 152 150 151 149 148 149 149 150 151 152 151 148 148 149 149 148 149 158 158 156 166
170 214 218 225 239 256 214 222 238 227 258 167 215 222 235 57 148 142 145 157 165 164 164 164 163 164 164 160 158 156 152 150 153 156 155 156 156 155 153 153 158 158 162 164 169 168 165 172 161
165 221 227 225 221 224 210 199 223 218 238 223 226 271 26 148 148 144 149 159 166 172 170 168 166 167 169 167 165 156 157 157 159 162 162 158 169 169 166 169 167 173 176 178 177 164 141 88 117
203 226 224 223 226 225 242 245 214 230 193 213 233 277 43 169 174 168 170 170 171 173 180 173 171 172 171 170 167 173 170 172 174 175 172 177 176 182 183 179 182 183 180 163 161 153 148 200 215
203 231 228 224 231 236 246 247 228 246 248 248 249 291 44 179 198 192 189 173 174 172 177 180 176 178 182 176 172 180 180 179 179 180 179 181 179 184 194 189 193 193 184 186 181 172 199 207 216
234 229 229 226 219 234 238 249 237 236 246 267 239 305 305 220 198 196 187 182 177 178 184 182 183 182 190 181 186 184 185 184 185 188 186 181 184 187 194 200 200 199 197 192 196 203 204 217 221
229 230 217 234 230 236 252 243 257 231 248 248 258 285 276 242 205 192 189 187 181 183 185 185 187 187 192 191 189 190 193 194 193 190 190 189 192 195 194 195 205 209 200 193 202 209 218 226 233
209 223 234 228 236 244 252 254 234 229 232 247 260 268 265 235 201 189 187 188 191 187 188 184 191 189 194 193 187 191 196 194 199 194 191 193 195 195 194 194 205 218 219 218 211 207 206 228 230
222 221 226 235 230 242 253 256 244 238 240 255 259 270 268 232 201 201 193 191 188 194 189 194 192 192 196 197 188 195 202 201 200 199 195 194 192 190 190 199 204 204 205 186 198 188 154 182 201
211 233 234 205 202 230 216 249 4 194 204 223 234 244 250 218 216 212 209 204 194 187 190 189 192 189 191 196 190 191 204 207 201 204 194 194 196 192 196 194 199 189 181 171 183 198 200 212 233
206 226 223 235 215 206 204 257 246 235 200 221 225 234 232 231 223 220 215 205 194 193 188 193 195 194 195 190 183 183 190 202 198 192 197 194 200 199 205 196 188 179 177 169 195 208 233 260 269
203 223 207 206 193 213 219 228 254 193 219 219 223 233 235 234 228 220 213 205 197 196 197 196 193 196 187 177 160 161 173 174 176 188 206 201 203 195 194 193 187 182 184 191 211 229 221 254 265
220 209 224 205 204 208 231 235 233 237 223 233 234 233 227 225 238 238 221 210 199 200 198 194 190 187 173 170 163 177 175 150 172 208 222 212 204 193 189 194 186 184 203 207 217 233 225 251 273
224 192 217 222 220 219 233 240 229 244 235 234 227 230 227 216 214 216 209 198 203 200 201 197 199 185 183 173 161 143 145 166 180 189 189 189 200 191 191 192 193 183 204 229 227 233 265 251 244
223 218 204 197 191 214 235 242 224 238 220 221 218 225 228 218 217 207 206 202 203 203 200 199 191 181 175 160 133 112 113 115 158 182 198 198 193 200 205 199 188 181 204 235 224 215 217 248 222
215 211 208 200 211 202 206 248 215 226 213 209 206 210 223 216 221 211 206 205 200 209 196 192 180 175 163 160 153 165 180 188 182 205 211 191 208 222 219 213 199 196 214 227 222 218 237 240 248
221 183 199 221 230 238 195 242 240 220 229 214 210 209 214 220 207 204 195 203 207 197 188 179 166 163 158 160 171 169 170 182 194 206 197 190 207 208 199 199 191 188 216 213 224 207 217 211 250
193 178 189 201 218 233 227 225 212 206 228 217 208 235 236 221 205 205 199 192 183 169 168 142 126 148 165 171 173 170 189 197 228 225 213 191 184 184 205 184 181 175 183 205 194 186 178 197 250
204 169 159 187 196 217 215 210 219 200 248 292 300 299 158 166 165 166 167 168 154 157 144 134 127 125 132 137 141 167 174 194 243 246 232 172 155 130 135 155 151 145 127 127 127 102 72 350 306
193 182 176 172 186 188 155 213 201 230 357 345 61 84 111 121 131 138 141 141 143 132 119 113 101 86 87 90 75 59 36 44 69 67 97 99 113 105 91 95 99 100 105 93 71 76 358 333 296
189 199 187 145 176 171 170 144 152 145 122 89 85 96 92 96 103 108 106 102 106 105 108 109 102 94 86 83 79 68 58 49 57 61 74 80 79 96 96 95 90 76 62 44 28 11 331 314 301
184 189 194 195 168 176 182 188 128 161 141 114 101 104 89 86 86 84 85 88 93 99 103 102 102 100 99 87 76 70 72 63 42 40 42 52 53 52 45 56 56 50 37 23 351 309 312 298 285
183 190 213 145 250 176 153 185 56 151 139 126 111 84 79 81 85 89 91 94 99 102 101 101 100 104 100 92 84 71 58 62 59 48 38 29 40 35 32 28 24 27 14 359 333 325 308 295 296
177 200 190 195 156 83 208 103 339 139 130 116 95 90 93 92 93 90 89 95 101 102 96 92 94 101 102 97 93 69 47 42 46 47 31 22 31 27 15 9 1 353 343 335 326 308 295 287 287